Year,Month,Day,Hour,Minute,Value (Times are PST for temperature in C)
2015,07,10,00,00,18.60
2015,07,10,00,01,18.50
2015,07,10,00,02,18.50
2015,07,10,00,03,18.40
2015,07,10,00,04,18.30
2015,07,10,00,05,18.30
2015,07,10,00,06,18.30
2015,07,10,00,07,18.30
2015,07,10,00,08,18.20
2015,07,10,00,09,18.20
2015,07,10,00,10,18.20
2015,07,10,00,11,18.20
2015,07,10,00,12,18.20
2015,07,10,00,13,18.30
2015,07,10,00,14,18.30
2015,07,10,00,15,18.30
2015,07,10,00,16,18.30
2015,07,10,00,17,18.30
2015,07,10,00,18,18.30
2015,07,10,00,19,18.30
2015,07,10,00,20,18.30
2015,07,10,00,21,18.30
2015,07,10,00,22,18.30
2015,07,10,00,23,18.30
2015,07,10,00,24,18.30
2015,07,10,00,25,18.30
2015,07,10,00,26,18.30
2015,07,10,00,27,18.20
2015,07,10,00,28,18.20
2015,07,10,00,29,18.20
2015,07,10,00,30,18.20
2015,07,10,00,31,18.20
2015,07,10,00,32,18.10
2015,07,10,00,33,18.10
2015,07,10,00,34,18.00
2015,07,10,00,35,18.00
2015,07,10,00,36,17.90
2015,07,10,00,37,17.90
2015,07,10,00,38,17.80
2015,07,10,00,39,17.80
2015,07,10,00,40,17.70
2015,07,10,00,41,17.70
2015,07,10,00,42,17.60
2015,07,10,00,43,17.60
2015,07,10,00,44,17.50
2015,07,10,00,45,17.50
2015,07,10,00,46,17.40
2015,07,10,00,47,17.30
2015,07,10,00,48,17.30
2015,07,10,00,49,17.20
2015,07,10,00,50,17.20
2015,07,10,00,51,17.20
2015,07,10,00,52,17.10
2015,07,10,00,53,17.10
2015,07,10,00,54,17.10
2015,07,10,00,55,17.00
2015,07,10,00,56,17.00
2015,07,10,00,57,16.90
2015,07,10,00,58,16.90
2015,07,10,00,59,16.90
2015,07,10,01,00,16.90
2015,07,10,01,01,16.90
2015,07,10,01,02,16.80
2015,07,10,01,03,16.80
2015,07,10,01,04,16.80
2015,07,10,01,05,16.80
2015,07,10,01,06,16.80
2015,07,10,01,07,16.80
2015,07,10,01,08,16.80
2015,07,10,01,09,16.80
2015,07,10,01,10,16.80
2015,07,10,01,11,16.70
2015,07,10,01,12,16.70
2015,07,10,01,13,16.70
2015,07,10,01,14,16.70
2015,07,10,01,15,16.70
2015,07,10,01,16,16.70
2015,07,10,01,17,16.70
2015,07,10,01,18,16.70
2015,07,10,01,19,16.70
2015,07,10,01,20,16.70
2015,07,10,01,21,16.60
2015,07,10,01,22,16.60
2015,07,10,01,23,16.60
2015,07,10,01,24,16.60
2015,07,10,01,25,16.60
2015,07,10,01,26,16.60
2015,07,10,01,27,16.60
2015,07,10,01,28,16.60
2015,07,10,01,29,16.60
2015,07,10,01,30,16.60
2015,07,10,01,31,16.60
2015,07,10,01,32,16.60
2015,07,10,01,33,16.60
2015,07,10,01,34,16.50
2015,07,10,01,35,16.50
2015,07,10,01,36,16.50
2015,07,10,01,37,16.50
2015,07,10,01,38,16.50
2015,07,10,01,39,16.50
2015,07,10,01,40,16.50
2015,07,10,01,41,16.50
2015,07,10,01,42,16.50
2015,07,10,01,43,16.50
2015,07,10,01,44,16.40
2015,07,10,01,45,16.40
2015,07,10,01,46,16.40
2015,07,10,01,47,16.40
2015,07,10,01,48,16.40
2015,07,10,01,49,16.40
2015,07,10,01,50,16.40
2015,07,10,01,51,16.40
2015,07,10,01,52,16.40
2015,07,10,01,53,16.40
2015,07,10,01,54,16.40
2015,07,10,01,55,16.40
2015,07,10,01,56,16.40
2015,07,10,01,57,16.40
2015,07,10,01,58,16.40
2015,07,10,01,59,16.40
2015,07,10,02,00,16.40
2015,07,10,02,01,16.30
2015,07,10,02,02,16.30
2015,07,10,02,03,16.30
2015,07,10,02,04,16.30
2015,07,10,02,05,16.30
2015,07,10,02,06,16.30
2015,07,10,02,07,16.40
2015,07,10,02,08,16.40
2015,07,10,02,09,16.40
2015,07,10,02,10,16.40
2015,07,10,02,11,16.40
2015,07,10,02,12,16.40
2015,07,10,02,13,16.40
2015,07,10,02,14,16.40
2015,07,10,02,15,16.40
2015,07,10,02,16,16.40
2015,07,10,02,17,16.40
2015,07,10,02,18,16.40
2015,07,10,02,19,16.40
2015,07,10,02,20,16.40
2015,07,10,02,21,16.40
2015,07,10,02,22,16.40
2015,07,10,02,23,16.40
2015,07,10,02,24,16.40
2015,07,10,02,25,16.40
2015,07,10,02,26,16.40
2015,07,10,02,27,16.40
2015,07,10,02,28,16.40
2015,07,10,02,29,16.40
2015,07,10,02,30,16.40
2015,07,10,02,31,16.40
2015,07,10,02,32,16.40
2015,07,10,02,33,16.40
2015,07,10,02,34,16.40
2015,07,10,02,35,16.40
2015,07,10,02,36,16.40
2015,07,10,02,37,16.40
2015,07,10,02,38,16.30
2015,07,10,02,39,16.30
2015,07,10,02,40,16.30
2015,07,10,02,41,16.30
2015,07,10,02,42,16.30
2015,07,10,02,43,16.30
2015,07,10,02,44,16.30
2015,07,10,02,45,16.30
2015,07,10,02,46,16.20
2015,07,10,02,47,16.20
2015,07,10,02,48,16.20
2015,07,10,02,49,16.20
2015,07,10,02,50,16.20
2015,07,10,02,51,16.20
2015,07,10,02,52,16.20
2015,07,10,02,53,16.20
2015,07,10,02,54,16.20
2015,07,10,02,55,16.20
2015,07,10,02,56,16.20
2015,07,10,02,57,16.20
2015,07,10,02,58,16.20
2015,07,10,02,59,16.20
2015,07,10,03,00,16.10
2015,07,10,03,01,16.10
2015,07,10,03,02,16.10
2015,07,10,03,03,16.10
2015,07,10,03,04,16.10
2015,07,10,03,05,16.10
2015,07,10,03,06,16.10
2015,07,10,03,07,16.10
2015,07,10,03,08,16.10
2015,07,10,03,09,16.10
2015,07,10,03,10,16.10
2015,07,10,03,11,16.10
2015,07,10,03,12,16.10
2015,07,10,03,13,16.10
2015,07,10,03,14,16.10
2015,07,10,03,15,16.10
2015,07,10,03,16,16.10
2015,07,10,03,17,16.10
2015,07,10,03,18,16.10
2015,07,10,03,19,16.10
2015,07,10,03,20,16.10
2015,07,10,03,21,16.00
2015,07,10,03,22,16.00
2015,07,10,03,23,16.00
2015,07,10,03,24,16.00
2015,07,10,03,25,16.00
2015,07,10,03,26,16.00
2015,07,10,03,27,15.90
2015,07,10,03,28,15.90
2015,07,10,03,29,15.90
2015,07,10,03,30,15.90
2015,07,10,03,31,15.90
2015,07,10,03,32,15.90
2015,07,10,03,33,15.90
2015,07,10,03,34,15.90
2015,07,10,03,35,15.80
2015,07,10,03,36,15.80
2015,07,10,03,37,15.80
2015,07,10,03,38,15.80
2015,07,10,03,39,15.80
2015,07,10,03,40,15.80
2015,07,10,03,41,15.80
2015,07,10,03,42,15.80
2015,07,10,03,43,15.80
2015,07,10,03,44,15.80
2015,07,10,03,45,15.80
2015,07,10,03,46,15.70
2015,07,10,03,47,15.70
2015,07,10,03,48,15.70
2015,07,10,03,49,15.70
2015,07,10,03,50,15.70
2015,07,10,03,51,15.70
2015,07,10,03,52,15.70
2015,07,10,03,53,15.70
2015,07,10,03,54,15.70
2015,07,10,03,55,15.70
2015,07,10,03,56,15.70
2015,07,10,03,57,15.70
2015,07,10,03,58,15.70
2015,07,10,03,59,15.70
2015,07,10,04,00,15.70
2015,07,10,04,01,15.70
2015,07,10,04,02,15.70
2015,07,10,04,03,15.70
2015,07,10,04,04,15.70
2015,07,10,04,05,15.70
2015,07,10,04,06,15.70
2015,07,10,04,07,15.70
2015,07,10,04,08,15.70
2015,07,10,04,09,15.70
2015,07,10,04,10,15.70
2015,07,10,04,11,15.70
2015,07,10,04,12,15.70
2015,07,10,04,13,15.70
2015,07,10,04,14,15.60
2015,07,10,04,15,15.70
2015,07,10,04,16,15.70
2015,07,10,04,17,15.70
2015,07,10,04,18,15.60
2015,07,10,04,19,15.60
2015,07,10,04,20,15.60
2015,07,10,04,21,15.60
2015,07,10,04,22,15.60
2015,07,10,04,23,15.60
2015,07,10,04,24,15.60
2015,07,10,04,25,15.60
2015,07,10,04,26,15.60
2015,07,10,04,27,15.60
2015,07,10,04,28,15.60
2015,07,10,04,29,15.60
2015,07,10,04,30,15.60
2015,07,10,04,31,15.60
2015,07,10,04,32,15.60
2015,07,10,04,33,15.60
2015,07,10,04,34,15.60
2015,07,10,04,35,15.60
2015,07,10,04,36,15.60
2015,07,10,04,37,15.60
2015,07,10,04,38,15.60
2015,07,10,04,39,15.60
2015,07,10,04,40,15.60
2015,07,10,04,41,15.60
2015,07,10,04,42,15.60
2015,07,10,04,43,15.60
2015,07,10,04,44,15.60
2015,07,10,04,45,15.60
2015,07,10,04,46,15.60
2015,07,10,04,47,15.60
2015,07,10,04,48,15.60
2015,07,10,04,49,15.60
2015,07,10,04,50,15.60
2015,07,10,04,51,15.60
2015,07,10,04,52,15.60
2015,07,10,04,53,15.60
2015,07,10,04,54,15.60
2015,07,10,04,55,15.60
2015,07,10,04,56,15.60
2015,07,10,04,57,15.60
2015,07,10,04,58,15.60
2015,07,10,04,59,15.60
2015,07,10,05,00,15.60
2015,07,10,05,01,15.60
2015,07,10,05,02,15.60
2015,07,10,05,03,15.60
2015,07,10,05,04,15.60
2015,07,10,05,05,15.60
2015,07,10,05,06,15.60
2015,07,10,05,07,15.60
2015,07,10,05,08,15.60
2015,07,10,05,09,15.60
2015,07,10,05,10,15.60
2015,07,10,05,11,15.60
2015,07,10,05,12,15.60
2015,07,10,05,13,15.60
2015,07,10,05,14,15.60
2015,07,10,05,15,15.60
2015,07,10,05,16,15.60
2015,07,10,05,17,15.60
2015,07,10,05,18,15.60
2015,07,10,05,19,15.60
2015,07,10,05,20,15.60
2015,07,10,05,21,15.60
2015,07,10,05,22,15.60
2015,07,10,05,23,15.60
2015,07,10,05,24,15.60
2015,07,10,05,25,15.60
2015,07,10,05,26,15.60
2015,07,10,05,27,15.60
2015,07,10,05,28,15.60
2015,07,10,05,29,15.60
2015,07,10,05,30,15.50
2015,07,10,05,31,15.50
2015,07,10,05,32,15.50
2015,07,10,05,33,15.50
2015,07,10,05,34,15.50
2015,07,10,05,35,15.50
2015,07,10,05,36,15.50
2015,07,10,05,37,15.50
2015,07,10,05,38,15.50
2015,07,10,05,39,15.50
2015,07,10,05,40,15.50
2015,07,10,05,41,15.50
2015,07,10,05,42,15.50
2015,07,10,05,43,15.50
2015,07,10,05,44,15.60
2015,07,10,05,45,15.60
2015,07,10,05,46,15.60
2015,07,10,05,47,15.60
2015,07,10,05,48,15.60
2015,07,10,05,49,15.60
2015,07,10,05,50,15.60
2015,07,10,05,51,15.60
2015,07,10,05,52,15.60
2015,07,10,05,53,15.60
2015,07,10,05,54,15.60
2015,07,10,05,55,15.60
2015,07,10,05,56,15.60
2015,07,10,05,57,15.60
2015,07,10,05,58,15.60
2015,07,10,05,59,15.60
2015,07,10,06,00,15.60
2015,07,10,06,01,15.60
2015,07,10,06,02,15.60
2015,07,10,06,03,15.60
2015,07,10,06,04,15.60
2015,07,10,06,05,15.60
2015,07,10,06,06,15.60
2015,07,10,06,07,15.60
2015,07,10,06,08,15.60
2015,07,10,06,09,15.60
2015,07,10,06,10,15.60
2015,07,10,06,11,15.60
2015,07,10,06,12,15.60
2015,07,10,06,13,15.60
2015,07,10,06,14,15.60
2015,07,10,06,15,15.60
2015,07,10,06,16,15.60
2015,07,10,06,17,15.70
2015,07,10,06,18,15.70
2015,07,10,06,19,15.70
2015,07,10,06,20,15.70
2015,07,10,06,21,15.70
2015,07,10,06,22,15.70
2015,07,10,06,23,15.70
2015,07,10,06,24,15.70
2015,07,10,06,25,15.70
2015,07,10,06,26,15.70
2015,07,10,06,27,15.70
2015,07,10,06,28,15.70
2015,07,10,06,29,15.70
2015,07,10,06,30,15.70
2015,07,10,06,31,15.80
2015,07,10,06,32,15.80
2015,07,10,06,33,15.80
2015,07,10,06,34,15.80
2015,07,10,06,35,15.80
2015,07,10,06,36,15.80
2015,07,10,06,37,15.80
2015,07,10,06,38,15.80
2015,07,10,06,39,15.90
2015,07,10,06,40,15.90
2015,07,10,06,41,15.90
2015,07,10,06,42,15.90
2015,07,10,06,43,15.90
2015,07,10,06,44,15.90
2015,07,10,06,45,15.90
2015,07,10,06,46,15.90
2015,07,10,06,47,16.00
2015,07,10,06,48,16.00
2015,07,10,06,49,16.00
2015,07,10,06,50,16.00
2015,07,10,06,51,16.00
2015,07,10,06,52,16.10
2015,07,10,06,53,16.10
2015,07,10,06,54,16.10
2015,07,10,06,55,16.10
2015,07,10,06,56,16.10
2015,07,10,06,57,16.20
2015,07,10,06,58,16.20
2015,07,10,06,59,16.20
2015,07,10,07,00,16.20
2015,07,10,07,01,16.20
2015,07,10,07,02,16.20
2015,07,10,07,03,16.20
2015,07,10,07,04,16.30
2015,07,10,07,05,16.30
2015,07,10,07,06,16.30
2015,07,10,07,07,16.30
2015,07,10,07,08,16.30
2015,07,10,07,09,16.40
2015,07,10,07,10,16.40
2015,07,10,07,11,16.50
2015,07,10,07,12,16.50
2015,07,10,07,13,16.50
2015,07,10,07,14,16.50
2015,07,10,07,15,16.60
2015,07,10,07,16,16.60
2015,07,10,07,17,16.60
2015,07,10,07,18,16.60
2015,07,10,07,19,16.60
2015,07,10,07,20,16.60
2015,07,10,07,21,16.60
2015,07,10,07,22,16.60
2015,07,10,07,23,16.60
2015,07,10,07,24,16.60
2015,07,10,07,25,16.70
2015,07,10,07,26,16.70
2015,07,10,07,27,16.70
2015,07,10,07,28,16.70
2015,07,10,07,29,16.70
2015,07,10,07,30,16.80
2015,07,10,07,31,16.80
2015,07,10,07,32,16.80
2015,07,10,07,33,16.90
2015,07,10,07,34,16.90
2015,07,10,07,35,16.90
2015,07,10,07,36,16.90
2015,07,10,07,37,16.90
2015,07,10,07,38,16.90
2015,07,10,07,39,16.90
2015,07,10,07,40,17.00
2015,07,10,07,41,17.00
2015,07,10,07,42,17.00
2015,07,10,07,43,17.10
2015,07,10,07,44,17.10
2015,07,10,07,45,17.20
2015,07,10,07,46,17.20
2015,07,10,07,47,17.20
2015,07,10,07,48,17.20
2015,07,10,07,49,17.30
2015,07,10,07,50,17.30
2015,07,10,07,51,17.30
2015,07,10,07,52,17.30
2015,07,10,07,53,17.30
2015,07,10,07,54,17.30
2015,07,10,07,55,17.30
2015,07,10,07,56,17.30
2015,07,10,07,57,17.30
2015,07,10,07,58,17.30
2015,07,10,07,59,17.30
2015,07,10,08,00,17.20
2015,07,10,08,01,17.10
2015,07,10,08,02,17.00
2015,07,10,08,03,16.90
2015,07,10,08,04,16.80
2015,07,10,08,05,16.80
2015,07,10,08,06,16.70
2015,07,10,08,07,16.60
2015,07,10,08,08,16.60
2015,07,10,08,09,16.60
2015,07,10,08,10,16.50
2015,07,10,08,11,16.50
2015,07,10,08,12,16.40
2015,07,10,08,13,16.50
2015,07,10,08,14,16.50
2015,07,10,08,15,16.50
2015,07,10,08,16,16.50
2015,07,10,08,17,16.50
2015,07,10,08,18,16.40
2015,07,10,08,19,16.40
2015,07,10,08,20,16.40
2015,07,10,08,21,16.40
2015,07,10,08,22,16.40
2015,07,10,08,23,16.40
2015,07,10,08,24,16.40
2015,07,10,08,25,16.40
2015,07,10,08,26,16.40
2015,07,10,08,27,16.50
2015,07,10,08,28,16.50
2015,07,10,08,29,16.60
2015,07,10,08,30,16.60
2015,07,10,08,31,16.60
2015,07,10,08,32,16.70
2015,07,10,08,33,16.70
2015,07,10,08,34,16.70
2015,07,10,08,35,16.70
2015,07,10,08,36,16.70
2015,07,10,08,37,16.70
2015,07,10,08,38,16.70
2015,07,10,08,39,16.80
2015,07,10,08,40,16.80
2015,07,10,08,41,16.80
2015,07,10,08,42,16.80
2015,07,10,08,43,16.90
2015,07,10,08,44,16.90
2015,07,10,08,45,16.90
2015,07,10,08,46,16.90
2015,07,10,08,47,16.90
2015,07,10,08,48,16.90
2015,07,10,08,49,16.90
2015,07,10,08,50,16.90
2015,07,10,08,51,16.90
2015,07,10,08,52,16.90
2015,07,10,08,53,16.90
2015,07,10,08,54,16.90
2015,07,10,08,55,16.90
2015,07,10,08,56,16.90
2015,07,10,08,57,16.90
2015,07,10,08,58,17.00
2015,07,10,08,59,17.00
2015,07,10,09,00,17.00
2015,07,10,09,01,17.00
2015,07,10,09,02,17.00
2015,07,10,09,03,17.00
2015,07,10,09,04,17.00
2015,07,10,09,05,17.00
2015,07,10,09,06,17.00
2015,07,10,09,07,17.00
2015,07,10,09,08,17.00
2015,07,10,09,09,17.00
2015,07,10,09,10,17.10
2015,07,10,09,11,17.10
2015,07,10,09,12,17.10
2015,07,10,09,13,17.10
2015,07,10,09,14,17.10
2015,07,10,09,15,17.10
2015,07,10,09,16,17.10
2015,07,10,09,17,17.10
2015,07,10,09,18,17.10
2015,07,10,09,19,17.10
2015,07,10,09,20,17.20
2015,07,10,09,21,17.20
2015,07,10,09,22,17.20
2015,07,10,09,23,17.20
2015,07,10,09,24,17.10
2015,07,10,09,25,17.10
2015,07,10,09,26,17.10
2015,07,10,09,27,17.10
2015,07,10,09,28,17.20
2015,07,10,09,29,17.20
2015,07,10,09,30,17.30
2015,07,10,09,31,17.30
2015,07,10,09,32,17.30
2015,07,10,09,33,17.30
2015,07,10,09,34,17.40
2015,07,10,09,35,17.40
2015,07,10,09,36,17.40
2015,07,10,09,37,17.40
2015,07,10,09,38,17.40
2015,07,10,09,39,17.40
2015,07,10,09,40,17.30
2015,07,10,09,41,17.20
2015,07,10,09,42,17.20
2015,07,10,09,43,17.20
2015,07,10,09,44,17.20
2015,07,10,09,45,17.20
2015,07,10,09,46,17.30
2015,07,10,09,47,17.30
2015,07,10,09,48,17.30
2015,07,10,09,49,17.40
2015,07,10,09,50,17.40
2015,07,10,09,51,17.40
2015,07,10,09,52,17.40
2015,07,10,09,53,17.30
2015,07,10,09,54,17.40
2015,07,10,09,55,17.40
2015,07,10,09,56,17.50
2015,07,10,09,57,17.50
2015,07,10,09,58,17.50
2015,07,10,09,59,17.50
2015,07,10,10,00,17.50
2015,07,10,10,01,17.50
2015,07,10,10,02,17.50
2015,07,10,10,03,17.50
2015,07,10,10,04,17.50
2015,07,10,10,05,17.50
2015,07,10,10,06,17.50
2015,07,10,10,07,17.50
2015,07,10,10,08,17.40
2015,07,10,10,09,17.40
2015,07,10,10,10,17.40
2015,07,10,10,11,17.40
2015,07,10,10,12,17.40
2015,07,10,10,13,17.40
2015,07,10,10,14,17.40
2015,07,10,10,15,17.40
2015,07,10,10,16,17.40
2015,07,10,10,17,17.50
2015,07,10,10,18,17.50
2015,07,10,10,19,17.60
2015,07,10,10,20,17.70
2015,07,10,10,21,17.70
2015,07,10,10,22,17.80
2015,07,10,10,23,17.90
2015,07,10,10,24,18.00
2015,07,10,10,25,18.10
2015,07,10,10,26,18.10
2015,07,10,10,27,18.10
2015,07,10,10,28,18.20
2015,07,10,10,29,18.20
2015,07,10,10,30,18.30
2015,07,10,10,31,18.30
2015,07,10,10,32,18.30
2015,07,10,10,33,18.30
2015,07,10,10,34,18.30
2015,07,10,10,35,18.30
2015,07,10,10,36,18.30
2015,07,10,10,37,18.30
2015,07,10,10,38,18.20
2015,07,10,10,39,18.20
2015,07,10,10,40,18.20
2015,07,10,10,41,18.10
2015,07,10,10,42,18.20
2015,07,10,10,43,18.20
2015,07,10,10,44,18.20
2015,07,10,10,45,18.20
2015,07,10,10,46,18.30
2015,07,10,10,47,18.30
2015,07,10,10,48,18.30
2015,07,10,10,49,18.40
2015,07,10,10,50,18.40
2015,07,10,10,51,18.40
2015,07,10,10,52,18.40
2015,07,10,10,53,18.40
2015,07,10,10,54,18.50
2015,07,10,10,55,18.50
2015,07,10,10,56,18.60
2015,07,10,10,57,18.60
2015,07,10,10,58,18.60
2015,07,10,10,59,18.60
2015,07,10,11,00,18.60
2015,07,10,11,01,18.60
2015,07,10,11,02,18.60
2015,07,10,11,03,18.60
2015,07,10,11,04,18.60
2015,07,10,11,05,18.60
2015,07,10,11,06,18.60
2015,07,10,11,07,18.60
2015,07,10,11,08,18.60
2015,07,10,11,09,18.60
2015,07,10,11,10,18.60
2015,07,10,11,11,18.60
2015,07,10,11,12,18.60
2015,07,10,11,13,18.60
2015,07,10,11,14,18.70
2015,07,10,11,15,18.70
2015,07,10,11,16,18.80
2015,07,10,11,17,18.80
2015,07,10,11,18,18.80
2015,07,10,11,19,18.90
2015,07,10,11,20,18.80
2015,07,10,11,21,18.80
2015,07,10,11,22,18.90
2015,07,10,11,23,18.90
2015,07,10,11,24,19.00
2015,07,10,11,25,19.00
2015,07,10,11,26,19.10
2015,07,10,11,27,19.10
2015,07,10,11,28,19.20
2015,07,10,11,29,19.20
2015,07,10,11,30,19.20
2015,07,10,11,31,19.20
2015,07,10,11,32,19.20
2015,07,10,11,33,19.20
2015,07,10,11,34,19.20
2015,07,10,11,35,19.20
2015,07,10,11,36,19.20
2015,07,10,11,37,19.20
2015,07,10,11,38,19.20
2015,07,10,11,39,19.20
2015,07,10,11,40,19.20
2015,07,10,11,41,19.20
2015,07,10,11,42,19.20
2015,07,10,11,43,19.20
2015,07,10,11,44,19.20
2015,07,10,11,45,19.20
2015,07,10,11,46,19.20
2015,07,10,11,47,19.20
2015,07,10,11,48,19.20
2015,07,10,11,49,19.20
2015,07,10,11,50,19.20
2015,07,10,11,51,19.20
2015,07,10,11,52,19.20
2015,07,10,11,53,19.20
2015,07,10,11,54,19.20
2015,07,10,11,55,19.10
2015,07,10,11,56,19.10
2015,07,10,11,57,19.10
2015,07,10,11,58,19.10
2015,07,10,11,59,19.10
2015,07,10,12,00,19.10
2015,07,10,12,01,19.10
2015,07,10,12,02,19.20
2015,07,10,12,03,19.30
2015,07,10,12,04,19.30
2015,07,10,12,05,19.40
2015,07,10,12,06,19.50
2015,07,10,12,07,19.50
2015,07,10,12,08,19.60
2015,07,10,12,09,19.60
2015,07,10,12,10,19.70
2015,07,10,12,11,19.70
2015,07,10,12,12,19.70
2015,07,10,12,13,19.60
2015,07,10,12,14,19.60
2015,07,10,12,15,19.70
2015,07,10,12,16,19.70
2015,07,10,12,17,19.60
2015,07,10,12,18,19.60
2015,07,10,12,19,19.70
2015,07,10,12,20,19.80
2015,07,10,12,21,19.80
2015,07,10,12,22,19.80
2015,07,10,12,23,19.80
2015,07,10,12,24,19.80
2015,07,10,12,25,19.80
2015,07,10,12,26,19.70
2015,07,10,12,27,19.70
2015,07,10,12,28,19.70
2015,07,10,12,29,19.70
2015,07,10,12,30,19.70
2015,07,10,12,31,19.80
2015,07,10,12,32,19.90
2015,07,10,12,33,20.00
2015,07,10,12,34,20.00
2015,07,10,12,35,20.00
2015,07,10,12,36,19.90
2015,07,10,12,37,19.90
2015,07,10,12,38,19.90
2015,07,10,12,39,19.90
2015,07,10,12,40,19.80
2015,07,10,12,41,19.70
2015,07,10,12,42,19.70
2015,07,10,12,43,19.70
2015,07,10,12,44,19.70
2015,07,10,12,45,19.70
2015,07,10,12,46,19.70
2015,07,10,12,47,19.80
2015,07,10,12,48,19.80
2015,07,10,12,49,19.90
2015,07,10,12,50,20.00
2015,07,10,12,51,20.10
2015,07,10,12,52,20.10
2015,07,10,12,53,20.10
2015,07,10,12,54,20.10
2015,07,10,12,55,20.10
2015,07,10,12,56,20.20
2015,07,10,12,57,20.20
2015,07,10,12,58,20.20
2015,07,10,12,59,20.20
2015,07,10,13,00,20.30
2015,07,10,13,01,20.30
2015,07,10,13,02,20.30
2015,07,10,13,03,20.20
2015,07,10,13,04,20.30
2015,07,10,13,05,20.20
2015,07,10,13,06,20.20
2015,07,10,13,07,20.20
2015,07,10,13,08,20.20
2015,07,10,13,09,20.10
2015,07,10,13,10,20.10
2015,07,10,13,11,20.10
2015,07,10,13,12,20.20
2015,07,10,13,13,20.20
2015,07,10,13,14,20.20
2015,07,10,13,15,20.20
2015,07,10,13,16,20.20
2015,07,10,13,17,20.20
2015,07,10,13,18,20.20
2015,07,10,13,19,20.20
2015,07,10,13,20,20.20
2015,07,10,13,21,20.20
2015,07,10,13,22,20.20
2015,07,10,13,23,20.30
2015,07,10,13,24,20.30
2015,07,10,13,25,20.30
2015,07,10,13,26,20.40
2015,07,10,13,27,20.50
2015,07,10,13,28,20.50
2015,07,10,13,29,20.50
2015,07,10,13,30,20.40
2015,07,10,13,31,20.40
2015,07,10,13,32,20.30
2015,07,10,13,33,20.30
2015,07,10,13,34,20.30
2015,07,10,13,35,20.40
2015,07,10,13,36,20.60
2015,07,10,13,37,20.70
2015,07,10,13,38,20.80
2015,07,10,13,39,20.80
2015,07,10,13,40,20.90
2015,07,10,13,41,20.90
2015,07,10,13,42,20.80
2015,07,10,13,43,20.70
2015,07,10,13,44,20.70
2015,07,10,13,45,20.60
2015,07,10,13,46,20.50
2015,07,10,13,47,20.50
2015,07,10,13,48,20.50
2015,07,10,13,49,20.60
2015,07,10,13,50,20.70
2015,07,10,13,51,20.70
2015,07,10,13,52,20.70
2015,07,10,13,53,20.70
2015,07,10,13,54,20.70
2015,07,10,13,55,20.70
2015,07,10,13,56,20.70
2015,07,10,13,57,20.80
2015,07,10,13,58,20.80
2015,07,10,13,59,20.80
2015,07,10,14,00,20.70
2015,07,10,14,01,20.60
2015,07,10,14,02,20.60
2015,07,10,14,03,20.60
2015,07,10,14,04,20.60
2015,07,10,14,05,20.70
2015,07,10,14,06,20.70
2015,07,10,14,07,20.70
2015,07,10,14,08,20.70
2015,07,10,14,09,20.60
2015,07,10,14,10,20.60
2015,07,10,14,11,20.60
2015,07,10,14,12,20.60
2015,07,10,14,13,20.50
2015,07,10,14,14,20.50
2015,07,10,14,15,20.60
2015,07,10,14,16,20.60
2015,07,10,14,17,20.60
2015,07,10,14,18,20.70
2015,07,10,14,19,20.70
2015,07,10,14,20,20.70
2015,07,10,14,21,20.80
2015,07,10,14,22,20.90
2015,07,10,14,23,21.00
2015,07,10,14,24,21.00
2015,07,10,14,25,21.10
2015,07,10,14,26,21.00
2015,07,10,14,27,21.00
2015,07,10,14,28,21.10
2015,07,10,14,29,21.00
2015,07,10,14,30,21.00
2015,07,10,14,31,21.00
2015,07,10,14,32,21.00
2015,07,10,14,33,21.00
2015,07,10,14,34,21.00
2015,07,10,14,35,21.00
2015,07,10,14,36,21.00
2015,07,10,14,37,20.90
2015,07,10,14,38,20.90
2015,07,10,14,39,20.80
2015,07,10,14,40,20.80
2015,07,10,14,41,20.70
2015,07,10,14,42,20.60
2015,07,10,14,43,20.50
2015,07,10,14,44,20.50
2015,07,10,14,45,20.40
2015,07,10,14,46,20.40
2015,07,10,14,47,20.30
2015,07,10,14,48,20.30
2015,07,10,14,49,20.40
2015,07,10,14,50,20.40
2015,07,10,14,51,20.50
2015,07,10,14,52,20.40
2015,07,10,14,53,20.40
2015,07,10,14,54,20.50
2015,07,10,14,55,20.50
2015,07,10,14,56,20.50
2015,07,10,14,57,20.60
2015,07,10,14,58,20.70
2015,07,10,14,59,20.80
2015,07,10,15,00,20.80
2015,07,10,15,01,20.80
2015,07,10,15,02,20.80
2015,07,10,15,03,20.80
2015,07,10,15,04,20.80
2015,07,10,15,05,20.80
2015,07,10,15,06,20.80
2015,07,10,15,07,20.80
2015,07,10,15,08,20.80
2015,07,10,15,09,20.80
2015,07,10,15,10,20.80
2015,07,10,15,11,20.80
2015,07,10,15,12,20.80
2015,07,10,15,13,20.80
2015,07,10,15,14,20.80
2015,07,10,15,15,20.80
2015,07,10,15,16,20.80
2015,07,10,15,17,20.80
2015,07,10,15,18,20.90
2015,07,10,15,19,20.90
2015,07,10,15,20,20.80
2015,07,10,15,21,20.80
2015,07,10,15,22,20.80
2015,07,10,15,23,20.90
2015,07,10,15,24,21.00
2015,07,10,15,25,21.00
2015,07,10,15,26,21.00
2015,07,10,15,27,21.00
2015,07,10,15,28,21.00
2015,07,10,15,29,21.00
2015,07,10,15,30,21.00
2015,07,10,15,31,21.00
2015,07,10,15,32,21.10
2015,07,10,15,33,21.10
2015,07,10,15,34,21.10
2015,07,10,15,35,21.10
2015,07,10,15,36,21.10
2015,07,10,15,37,21.00
2015,07,10,15,38,21.00
2015,07,10,15,39,20.90
2015,07,10,15,40,20.90
2015,07,10,15,41,20.90
2015,07,10,15,42,20.90
2015,07,10,15,43,20.90
2015,07,10,15,44,20.80
2015,07,10,15,45,20.80
2015,07,10,15,46,20.80
2015,07,10,15,47,20.80
2015,07,10,15,48,20.80
2015,07,10,15,49,20.80
2015,07,10,15,50,20.80
2015,07,10,15,51,20.80
2015,07,10,15,52,20.80
2015,07,10,15,53,20.70
2015,07,10,15,54,20.70
2015,07,10,15,55,20.70
2015,07,10,15,56,20.70
2015,07,10,15,57,20.70
2015,07,10,15,58,20.70
2015,07,10,15,59,20.70
2015,07,10,16,00,20.80
2015,07,10,16,01,20.90
2015,07,10,16,02,20.90
2015,07,10,16,03,20.80
2015,07,10,16,04,20.80
2015,07,10,16,05,20.80
2015,07,10,16,06,20.80
2015,07,10,16,07,20.80
2015,07,10,16,08,20.80
2015,07,10,16,09,20.90
2015,07,10,16,10,21.00
2015,07,10,16,11,21.10
2015,07,10,16,12,21.20
2015,07,10,16,13,21.20
2015,07,10,16,14,21.20
2015,07,10,16,15,21.20
2015,07,10,16,16,21.20
2015,07,10,16,17,21.20
2015,07,10,16,18,21.20
2015,07,10,16,19,21.30
2015,07,10,16,20,21.30
2015,07,10,16,21,21.40
2015,07,10,16,22,21.50
2015,07,10,16,23,21.50
2015,07,10,16,24,21.60
2015,07,10,16,25,21.60
2015,07,10,16,26,21.50
2015,07,10,16,27,21.60
2015,07,10,16,28,21.60
2015,07,10,16,29,21.60
2015,07,10,16,30,21.60
2015,07,10,16,31,21.70
2015,07,10,16,32,21.80
2015,07,10,16,33,21.80
2015,07,10,16,34,21.90
2015,07,10,16,35,21.90
2015,07,10,16,36,21.90
2015,07,10,16,37,21.90
2015,07,10,16,38,21.90
2015,07,10,16,39,21.80
2015,07,10,16,40,21.80
2015,07,10,16,41,21.70
2015,07,10,16,42,21.60
2015,07,10,16,43,21.60
2015,07,10,16,44,21.60
2015,07,10,16,45,21.70
2015,07,10,16,46,21.70
2015,07,10,16,47,21.70
2015,07,10,16,48,21.80
2015,07,10,16,49,21.90
2015,07,10,16,50,21.90
2015,07,10,16,51,21.90
2015,07,10,16,52,21.90
2015,07,10,16,53,21.90
2015,07,10,16,54,21.90
2015,07,10,16,55,21.90
2015,07,10,16,56,21.80
2015,07,10,16,57,21.70
2015,07,10,16,58,21.60
2015,07,10,16,59,21.60
2015,07,10,17,00,21.50
2015,07,10,17,01,21.40
2015,07,10,17,02,21.50
2015,07,10,17,03,21.50
2015,07,10,17,04,21.60
2015,07,10,17,05,21.70
2015,07,10,17,06,21.70
2015,07,10,17,07,21.70
2015,07,10,17,08,21.70
2015,07,10,17,09,21.60
2015,07,10,17,10,21.50
2015,07,10,17,11,21.40
2015,07,10,17,12,21.40
2015,07,10,17,13,21.30
2015,07,10,17,14,21.20
2015,07,10,17,15,21.20
2015,07,10,17,16,21.20
2015,07,10,17,17,21.20
2015,07,10,17,18,21.30
2015,07,10,17,19,21.30